Voltar ao catálogo

CZ-6A DEB

AtivoPO
NORAD 60892·DEBRIS·🇨🇳 China

Lançado Aug 6, 2024 de Taiyuan Satellite Launch Center

Loading…

Próximas Passagens (próximas 24 horas)

TLE

AtualizadoSource: Space-Track

Época: Sep 14, 2026, 07:49 UTC

1 60892U 24140KX  26257.32605056  .00000298  00000-0  13221-3 0  9996
2 60892  89.1164 275.6668 0051058 221.0991 138.6349 14.19957380107312

Acompanhe CZ-6A DEB em tempo real com AllMySat

Download on the App Store